Location: Harwich
(41.7160°N, 69.9939°W)
Time: 19:25:47
(UTC+01:00)

Tiros 1 despin weight - All Passes

Search period start: 30 January 2023 00:00
Search period end: 09 February 2023 00:00
Orbit: 589 x 636 km, 48.2° (Epoch: 29 January)

Date Brightness Start Highest point End Pass type
(mag) Time Alt. Az. Time Alt. Az. Time Alt. Az.
30 Jan - 00:49:26 10° W 00:53:51 52° NNW 00:58:13 10° ENE visible
30 Jan - 02:31:46 10° WNW 02:35:54 35° N 02:39:59 10° ENE visible
30 Jan - 04:13:28 10° WNW 04:17:52 60° NNE 04:22:13 10° ESE night (unlit)
30 Jan - 05:55:08 10° WNW 05:59:09 35° SW 06:03:08 10° SSE night (unlit)
30 Jan - 21:43:12 10° S 21:46:10 17° SE 21:49:08 10° E daylight
30 Jan - 23:22:33 10° SW 23:27:06 80° SSE 23:31:36 10° ENE visible
31 Jan - 01:04:33 10° W 01:08:49 40° NNW 01:13:02 10° ENE visible
31 Jan - 02:46:44 10° WNW 02:50:56 38° N 02:55:05 10° ENE visible
31 Jan - 04:28:15 10° WNW 04:32:43 89° S 04:37:06 10° ESE night (unlit)
31 Jan - 06:10:32 10° W 06:13:40 19° SW 06:16:47 10° S night (unlit)
31 Jan - 21:56:38 10° SSW 22:00:40 31° SE 22:04:40 10° ENE daylight
31 Jan - 23:37:23 10° WSW 23:41:55 66° NNW 23:46:23 10° ENE visible
01 Feb - 01:19:41 10° WNW 01:23:51 36° N 01:27:58 10° ENE visible
01 Feb - 03:01:36 10° WNW 03:05:55 47° NNE 03:10:12 10° E visible
01 Feb - 04:43:06 10° WNW 04:47:26 53° SW 04:51:42 10° SE night (unlit)
01 Feb - 20:33:30 10° SE 20:34:34 11° SE 20:35:37 10° ESE daylight
01 Feb - 22:10:48 10° SW 22:15:17 56° SE 22:19:42 10° ENE daylight
01 Feb - 23:52:25 10° W 23:56:49 47° NNW 00:01:10 10° ENE visible
02 Feb - 01:34:43 10° WNW 01:38:53 36° N 01:43:00 10° ENE visible
02 Feb - 03:16:22 10° WNW 03:20:50 67° NNE 03:25:12 10° ESE visible
02 Feb - 04:58:10 10° WNW 05:02:01 29° SW 05:05:49 10° SSE night (unlit)
02 Feb - 20:45:32 10° S 20:48:58 21° SE 20:52:23 10° E daylight
02 Feb - 22:25:24 10° WSW 22:30:00 89° NNW 22:34:32 10° ENE daylight
03 Feb - 00:07:32 10° WNW 00:11:48 38° N 00:16:01 10° ENE visible
03 Feb - 01:49:39 10° WNW 01:53:54 40° N 01:58:07 10° E visible
03 Feb - 03:31:09 10° WNW 03:35:37 78° SSW 03:40:00 10° SE night (unlit)
03 Feb - 05:13:48 10° W 05:16:29 16° SW 05:19:07 10° S night (unlit)
03 Feb - 20:59:15 10° SSW 21:03:29 37° SE 21:07:41 10° ENE daylight
03 Feb - 22:40:18 10° WSW 22:44:49 59° NNW 22:49:18 10° ENE daylight
04 Feb - 00:22:38 10° WNW 00:26:49 35° N 00:30:58 10° ENE visible
04 Feb - 02:04:28 10° WNW 02:08:52 52° NNE 02:13:12 10° E visible
04 Feb - 03:46:02 10° WNW 03:50:17 44° SW 03:54:28 10° SE night (unlit)
04 Feb - 19:35:03 10° SSE 19:37:18 14° SE 19:39:33 10° ESE daylight
04 Feb - 21:13:33 10° SW 21:18:07 66° SSE 21:22:37 10° ENE daylight
04 Feb - 22:55:21 10° W 22:59:45 44° NNW 23:04:05 10° ENE daylight
05 Feb - 00:37:38 10° WNW 00:41:51 37° N 00:46:01 10° ENE visible
05 Feb - 02:19:13 10° WNW 02:23:43 77° NNE 02:28:09 10° ESE visible
05 Feb - 04:01:12 10° W 04:04:49 24° SW 04:08:23 10° SSE night (unlit)
05 Feb - 19:47:57 10° SSW 19:51:43 25° SE 19:55:29 10° E daylight
05 Feb - 21:28:15 10° WSW 21:32:51 78° NNW 21:37:25 10° ENE daylight
05 Feb - 23:10:28 10° WNW 23:14:44 37° N 23:18:56 10° ENE daylight
06 Feb - 00:52:30 10° WNW 00:56:50 43° NNE 01:01:06 10° E visible
06 Feb - 02:34:01 10° WNW 02:38:28 66° SSW 02:42:50 10° SE visible
06 Feb - 04:17:12 10° WSW 04:19:14 13° SW 04:21:14 10° SSW night (unlit)
06 Feb - 20:01:52 10° SW 20:06:16 45° SE 20:10:38 10° ENE daylight
06 Feb - 21:43:11 10° W 21:47:42 54° NNW 21:52:10 10° ENE daylight
06 Feb - 23:25:32 10° WNW 23:29:45 35° N 23:33:54 10° ENE visible
07 Feb - 01:07:16 10° WNW 01:11:45 58° NNE 01:16:09 10° E visible
07 Feb - 02:48:57 10° WNW 02:53:04 37° SW 02:57:08 10° SSE visible
07 Feb - 18:37:05 10° S 18:40:00 17° SE 18:42:55 10° E daylight
07 Feb - 20:16:18 10° SW 20:20:55 77° SSE 20:25:29 10° ENE daylight
07 Feb - 21:58:15 10° W 22:02:38 41° NNW 22:06:57 10° ENE daylight
07 Feb - 23:40:29 10° WNW 23:44:46 38° N 23:48:58 10° ENE visible
08 Feb - 01:22:02 10° WNW 01:26:34 87° NNE 01:31:01 10° ESE visible
08 Feb - 03:04:14 10° W 03:07:33 20° SW 03:10:50 10° S visible
08 Feb - 18:50:24 10° SSW 18:54:27 30° SE 18:58:28 10° ENE daylight
08 Feb - 20:31:04 10° WSW 20:35:41 69° NNW 20:40:14 10° ENE daylight
08 Feb - 22:13:21 10° WNW 22:17:37 36° N 22:21:49 10° ENE daylight
